contact:dominique.lefevre@mio.osupytheas.fr, maurice.libes@osupytheas.fr, didier.mallarino@osupytheas.fr
Project:EMSO http://www.emso-fr.org/EMSO-France
Depth: 2436.0 m
Title:EMSO Ligure Ouest : Data MII capteur AQUADOPP
Date,Latitude,Longitude,X_East,Y_North,Z_Up,Amplitude_X,Amplitude_Y,Amplitude_Z,Batterie,SoundSpeed,Heading,Pitch,Roll,Pressure,TIS,Speed,Direction
, degrees North, degrees East, m.s-1, m.s-1,m.s-1, 1, 1, 1, Volt, m.s-1, degree, degree, degree, dbar, degree_C, m.s-1, degree
2019-09-26T00:04:04,42.805,6.029,-0.029,0.001,-0.031,100.0,104.0,98.0,13.4,1505.1,326.7,-0.8,1.8,2470.599,13.27,0.029,272.0
2019-09-26T00:07:05,42.805,6.029,-0.026,0.0,-0.056,100.0,103.0,99.0,13.4,1505.2,327.2,-0.7,1.8,2470.416,13.29,0.026,270.0
2019-09-26T00:10:06,42.805,6.029,-0.045,0.0,-0.018,101.0,103.0,97.0,13.4,1505.2,327.0,-0.7,1.8,2470.251,13.3,0.045,270.0
2019-09-26T00:13:07,42.805,6.029,0.009,0.01,0.021,100.0,103.0,99.0,13.3,1505.3,324.6,-0.7,1.8,2470.147,13.31,0.013,42.0
2019-09-26T00:16:08,42.805,6.029,-0.054,0.012,-0.002,101.0,104.0,97.0,13.4,1505.3,323.6,-0.7,1.8,2470.046,13.32,0.055,282.5
2019-09-26T00:19:09,42.805,6.029,-0.052,0.015,-0.033,101.0,103.0,98.0,13.4,1505.3,327.6,-0.7,1.8,2469.937,13.32,0.054,286.1
2019-09-26T00:22:10,42.805,6.029,-0.029,-0.002,-0.023,101.0,103.0,98.0,13.4,1505.3,328.0,-0.7,1.8,2469.867,13.33,0.029,266.1
2019-09-26T00:25:11,42.805,6.029,-0.032,0.014,-0.042,99.0,104.0,97.0,13.3,1505.3,327.2,-0.7,1.8,2469.876,13.33,0.034,293.6
2019-09-26T00:28:12,42.805,6.029,-0.012,0.017,-0.022,100.0,104.0,98.0,13.4,1505.3,326.3,-0.7,1.8,2469.841,13.33,0.02,324.8
2019-09-26T00:31:13,42.805,6.029,-0.082,0.009,-0.116,101.0,105.0,97.0,13.4,1505.3,328.5,-0.7,1.9,2469.821,13.33,0.082,276.3
2019-09-26T00:34:14,42.805,6.029,-0.014,0.012,0.048,100.0,103.0,97.0,13.4,1505.3,326.2,-0.7,1.9,2469.849,13.33,0.018,310.6
2019-09-26T00:37:15,42.805,6.029,-0.077,0.0,-0.082,100.0,102.0,99.0,13.4,1505.3,326.0,-0.7,1.8,2469.846,13.33,0.076,270.0
2019-09-26T00:40:16,42.805,6.029,-0.04,-0.006,-0.058,99.0,104.0,98.0,13.4,1505.3,325.2,-0.7,1.9,2469.814,13.33,0.04,261.5
2019-09-26T00:43:17,42.805,6.029,-0.045,0.008,-0.042,99.0,103.0,99.0,13.4,1505.3,323.7,-0.7,1.8,2469.847,13.33,0.045,280.1
2019-09-26T00:46:18,42.805,6.029,-0.056,0.0,-0.074,100.0,104.0,98.0,13.4,1505.3,327.3,-0.7,1.8,2469.824,13.33,0.056,270.0
2019-09-26T00:49:19,42.805,6.029,-0.034,0.022,-0.043,100.0,103.0,99.0,13.4,1505.3,323.7,-0.7,1.9,2469.808,13.33,0.04,302.9
2019-09-26T00:52:20,42.805,6.029,-0.012,0.029,-0.006,100.0,104.0,98.0,13.3,1505.3,323.6,-0.7,1.8,2469.843,13.33,0.031,337.5
2019-09-26T00:55:21,42.805,6.029,-0.111,0.004,-0.11,99.0,104.0,98.0,13.4,1505.3,324.6,-0.8,1.8,2469.818,13.33,0.111,272.1
2019-09-26T00:58:22,42.805,6.029,-0.06,0.02,-0.054,99.0,103.0,99.0,13.4,1505.3,325.0,-0.7,1.9,2469.832,13.33,0.063,288.4
2019-09-26T01:01:23,42.805,6.029,-0.032,0.025,-0.058,100.0,103.0,98.0,13.4,1505.3,325.5,-0.7,1.8,2469.836,13.33,0.04,308.0
2019-09-26T01:04:24,42.805,6.029,-0.033,0.022,-0.009,101.0,103.0,98.0,13.4,1505.3,327.5,-0.7,1.8,2469.85,13.33,0.039,303.7
2019-09-26T01:07:25,42.805,6.029,-0.008,0.007,0.022,100.0,104.0,98.0,13.3,1505.3,326.2,-0.8,1.8,2469.788,13.33,0.01,311.2
2019-09-26T01:10:26,42.805,6.029,0.048,0.014,0.043,100.0,102.0,100.0,13.4,1505.3,328.1,-0.7,1.8,2469.824,13.33,0.05,73.7
2019-09-26T01:13:27,42.805,6.029,-0.019,-0.003,-0.023,101.0,102.0,97.0,13.4,1505.3,326.7,-0.7,1.8,2469.85,13.33,0.019,261.0
2019-09-26T01:16:28,42.805,6.029,-0.031,0.011,0.028,101.0,103.0,97.0,13.4,1505.3,327.8,-0.7,1.8,2469.795,13.33,0.032,289.5
2019-09-26T01:19:29,42.805,6.029,-0.012,-0.001,0.017,99.0,103.0,98.0,13.3,1505.3,326.4,-0.7,1.9,2469.842,13.33,0.012,265.2
2019-09-26T01:22:30,42.805,6.029,-0.016,0.022,-0.026,102.0,103.0,97.0,13.3,1505.3,323.2,-0.7,1.8,2469.876,13.33,0.027,324.0
2019-09-26T01:25:31,42.805,6.029,-0.024,-0.003,-0.032,100.0,103.0,98.0,13.4,1505.3,326.9,-0.7,1.8,2469.887,13.33,0.024,262.9
2019-09-26T01:28:32,42.805,6.029,0.022,0.029,0.052,99.0,104.0,98.0,13.4,1505.3,326.8,-0.7,1.8,2469.925,13.33,0.036,37.2
2019-09-26T01:31:33,42.805,6.029,-0.036,0.01,-0.027,100.0,104.0,98.0,13.3,1505.3,323.1,-0.7,1.8,2469.901,13.33,0.037,285.5
2019-09-26T01:34:34,42.805,6.029,-0.002,0.012,0.029,99.0,102.0,98.0,13.3,1505.3,325.3,-0.7,1.9,2469.919,13.33,0.012,350.5
2019-09-26T01:37:35,42.805,6.029,-0.032,0.025,-0.03,100.0,103.0,98.0,13.4,1505.3,328.0,-0.7,1.8,2469.887,13.33,0.04,308.0
2019-09-26T01:40:36,42.805,6.029,-0.054,-0.005,-0.032,100.0,103.0,98.0,13.4,1505.3,324.4,-0.7,1.8,2469.921,13.33,0.054,264.7
2019-09-26T01:43:37,42.805,6.029,-0.022,0.003,-0.031,102.0,103.0,99.0,13.4,1505.3,327.4,-0.7,1.8,2469.879,13.33,0.022,277.8
2019-09-26T01:46:38,42.805,6.029,-0.002,0.008,-0.016,100.0,104.0,97.0,13.4,1505.3,323.8,-0.7,1.8,2469.919,13.33,0.008,346.0
2019-09-26T01:49:39,42.805,6.029,-0.03,0.03,0.0,101.0,104.0,97.0,13.4,1505.3,326.7,-0.7,1.8,2469.926,13.33,0.042,315.0
2019-09-26T01:52:40,42.805,6.029,-0.001,0.0,-0.004,100.0,103.0,97.0,13.4,1505.3,327.0,-0.7,1.8,2469.904,13.33,0.001,270.0
2019-09-26T01:55:41,42.805,6.029,-0.04,0.019,0.0,101.0,103.0,98.0,13.4,1505.3,327.6,-0.7,1.8,2469.933,13.33,0.044,295.4
2019-09-26T01:58:42,42.805,6.029,-0.038,0.01,-0.042,102.0,104.0,97.0,13.4,1505.3,327.4,-0.7,1.8,2469.928,13.33,0.039,284.7
2019-09-26T02:01:43,42.805,6.029,-0.029,0.025,-0.021,100.0,106.0,97.0,13.4,1505.3,324.1,-0.7,1.8,2469.944,13.33,0.038,310.8
2019-09-26T02:04:44,42.805,6.029,-0.053,0.017,-0.031,100.0,104.0,98.0,13.4,1505.3,325.0,-0.7,1.8,2469.965,13.33,0.055,287.8
2019-09-26T02:07:45,42.805,6.029,-0.036,0.021,-0.025,101.0,104.0,97.0,13.4,1505.3,327.2,-0.7,1.8,2469.973,13.33,0.041,300.3
2019-09-26T02:10:46,42.805,6.029,-0.04,0.02,-0.017,100.0,103.0,99.0,13.4,1505.3,324.0,-0.7,1.8,2469.924,13.33,0.044,296.6
2019-09-26T02:13:47,42.805,6.029,-0.077,-0.005,-0.122,101.0,103.0,99.0,13.4,1505.3,323.8,-0.7,1.8,2469.912,13.33,0.077,266.3
2019-09-26T02:16:48,42.805,6.029,-0.065,0.011,-0.014,103.0,104.0,97.0,13.4,1505.3,327.2,-0.7,1.9,2469.907,13.33,0.065,279.6
2019-09-26T02:19:49,42.805,6.029,-0.036,0.012,-0.023,100.0,104.0,98.0,13.3,1505.3,325.7,-0.7,1.8,2469.978,13.33,0.037,288.4
2019-09-26T02:22:50,42.805,6.029,-0.039,0.009,-0.065,101.0,104.0,99.0,13.3,1505.3,325.1,-0.7,1.9,2469.984,13.33,0.04,283.0
2019-09-26T02:25:51,42.805,6.029,-0.06,0.003,-0.074,100.0,106.0,98.0,13.4,1505.3,325.2,-0.7,1.8,2469.983,13.33,0.06,272.9
2019-09-26T02:28:52,42.805,6.029,-0.028,0.014,-0.02,99.0,105.0,99.0,13.3,1505.3,323.5,-0.7,1.8,2469.971,13.33,0.031,296.6
2019-09-26T02:31:53,42.805,6.029,-0.077,0.012,-0.053,101.0,105.0,99.0,13.4,1505.3,326.1,-0.7,1.8,2470.016,13.33,0.077,278.9
2019-09-26T02:34:54,42.805,6.029,-0.073,0.003,-0.09,101.0,105.0,99.0,13.3,1505.3,326.3,-0.7,1.8,2469.958,13.33,0.073,272.4
2019-09-26T02:37:55,42.805,6.029,-0.037,0.014,-0.04,102.0,102.0,99.0,13.3,1505.3,326.7,-0.7,1.8,2469.957,13.33,0.039,290.7
2019-09-26T02:40:56,42.805,6.029,-0.05,0.0,-0.027,101.0,103.0,98.0,13.4,1505.3,325.4,-0.7,1.8,2470.01,13.33,0.05,270.0
2019-09-26T02:43:57,42.805,6.029,-0.036,0.005,-0.047,100.0,104.0,99.0,13.3,1505.3,326.0,-0.7,1.8,2469.971,13.33,0.036,277.9
2019-09-26T02:46:58,42.805,6.029,-0.033,0.007,-0.036,101.0,104.0,98.0,13.3,1505.3,325.5,-0.7,1.8,2470.005,13.33,0.033,282.0
2019-09-26T02:49:59,42.805,6.029,-0.098,0.017,-0.098,103.0,103.0,98.0,13.4,1505.3,328.0,-0.7,1.8,2469.995,13.33,0.099,279.8
2019-09-26T02:53:00,42.805,6.029,-0.075,-0.016,-0.048,100.0,105.0,99.0,13.3,1505.3,324.1,-0.7,1.8,2470.023,13.33,0.076,258.0
2019-09-26T02:56:01,42.805,6.029,-0.03,0.005,-0.006,99.0,103.0,99.0,13.4,1505.3,325.1,-0.7,1.9,2469.969,13.33,0.03,279.5
2019-09-26T02:59:02,42.805,6.029,-0.03,0.017,0.001,100.0,104.0,98.0,13.4,1505.3,327.3,-0.7,1.8,2470.054,13.33,0.034,299.5
2019-09-26T03:02:03,42.805,6.029,-0.036,0.009,-0.025,100.0,103.0,99.0,13.4,1505.3,323.8,-0.7,1.8,2470.009,13.33,0.037,284.0
2019-09-26T03:05:04,42.805,6.029,-0.025,0.011,-0.016,100.0,105.0,98.0,13.4,1505.3,328.2,-0.7,1.8,2470.007,13.33,0.027,293.7
2019-09-26T03:08:05,42.805,6.029,-0.064,0.021,-0.051,101.0,104.0,98.0,13.4,1505.3,327.1,-0.7,1.8,2470.004,13.33,0.067,288.2
2019-09-26T03:11:06,42.805,6.029,-0.049,-0.01,-0.067,104.0,105.0,102.0,13.4,1505.3,327.2,-0.7,1.8,2470.022,13.33,0.05,258.5
2019-09-26T03:14:07,42.805,6.029,-0.016,0.002,-0.028,101.0,103.0,97.0,13.4,1505.3,326.9,-0.7,1.8,2470.008,13.33,0.016,277.1
2019-09-26T03:17:08,42.805,6.029,-0.039,0.021,-0.023,100.0,105.0,98.0,13.4,1505.3,325.6,-0.7,1.8,2470.05,13.33,0.044,298.3
2019-09-26T03:20:09,42.805,6.029,-0.053,0.009,-0.028,101.0,104.0,98.0,13.4,1505.3,325.0,-0.7,1.8,2470.017,13.33,0.053,279.6
2019-09-26T03:23:10,42.805,6.029,-0.063,-0.022,-0.056,100.0,105.0,98.0,13.4,1505.3,328.5,-0.7,1.8,2470.035,13.33,0.066,250.8
2019-09-26T03:26:11,42.805,6.029,-0.055,0.01,-0.081,100.0,104.0,98.0,13.3,1505.3,328.0,-0.7,1.8,2470.039,13.33,0.055,280.3
2019-09-26T03:29:12,42.805,6.029,-0.036,-0.001,-0.056,101.0,104.0,97.0,13.4,1505.3,324.6,-0.7,1.9,2470.014,13.33,0.036,268.4
2019-09-26T03:32:13,42.805,6.029,-0.081,0.011,-0.06,102.0,104.0,98.0,13.3,1505.3,326.3,-0.7,1.8,2470.042,13.33,0.081,277.7
2019-09-26T03:35:14,42.805,6.029,-0.06,0.005,-0.105,102.0,105.0,97.0,13.4,1505.3,325.7,-0.7,1.9,2470.023,13.33,0.06,274.8
2019-09-26T03:38:15,42.805,6.029,-0.04,-0.003,-0.018,100.0,103.0,98.0,13.4,1505.3,326.4,-0.7,1.9,2470.04,13.33,0.04,265.7
2019-09-26T03:41:16,42.805,6.029,-0.031,-0.002,-0.016,101.0,103.0,99.0,13.3,1505.3,324.0,-0.7,1.8,2470.006,13.33,0.031,266.3
2019-09-26T03:44:17,42.805,6.029,-0.043,0.01,-0.036,99.0,104.0,98.0,13.3,1505.3,324.2,-0.7,1.8,2470.066,13.33,0.044,283.1
2019-09-26T03:47:18,42.805,6.029,-0.041,-0.001,-0.015,102.0,105.0,99.0,13.4,1505.3,325.6,-0.7,1.8,2470.045,13.33,0.041,268.6
2019-09-26T03:50:19,42.805,6.029,-0.032,0.03,-0.025,101.0,105.0,99.0,13.3,1505.3,328.2,-0.7,1.8,2470.046,13.33,0.043,313.1
2019-09-26T03:53:20,42.805,6.029,-0.066,0.015,-0.024,101.0,104.0,98.0,13.4,1505.3,323.3,-0.7,1.8,2470.033,13.33,0.067,282.8
2019-09-26T03:56:21,42.805,6.029,-0.084,0.005,-0.048,102.0,104.0,98.0,13.4,1505.3,326.6,-0.7,1.8,2470.045,13.33,0.084,273.4
2019-09-26T03:59:22,42.805,6.029,-0.079,0.006,-0.066,102.0,105.0,98.0,13.3,1505.3,324.4,-0.7,1.8,2470.084,13.33,0.079,274.3
2019-09-26T04:02:23,42.805,6.029,-0.076,-0.016,-0.044,101.0,106.0,98.0,13.4,1505.3,325.3,-0.8,1.8,2470.034,13.33,0.077,258.1
2019-09-26T04:05:24,42.805,6.029,-0.054,0.007,-0.018,101.0,108.0,99.0,13.3,1505.3,326.6,-0.7,1.8,2470.075,13.33,0.054,277.4
2019-09-26T04:08:25,42.805,6.029,-0.018,-0.001,-0.026,101.0,103.0,98.0,13.4,1505.3,327.4,-0.7,1.8,2470.037,13.33,0.018,266.8
2019-09-26T04:11:26,42.805,6.029,-0.101,-0.009,-0.065,101.0,105.0,99.0,13.3,1505.3,324.5,-0.7,1.8,2470.062,13.33,0.101,264.9
2019-09-26T04:14:27,42.805,6.029,-0.015,0.029,0.023,101.0,104.0,98.0,13.3,1505.3,325.9,-0.7,1.8,2470.101,13.33,0.032,332.6
2019-09-26T04:17:28,42.805,6.029,-0.028,0.0,0.006,101.0,104.0,98.0,13.4,1505.3,323.6,-0.7,1.8,2470.114,13.33,0.028,270.0
2019-09-26T04:20:29,42.805,6.029,-0.082,0.005,-0.062,101.0,105.0,98.0,13.4,1505.3,323.2,-0.7,1.8,2470.055,13.33,0.082,273.5
2019-09-26T04:23:30,42.805,6.029,-0.064,-0.015,-0.054,100.0,105.0,99.0,13.3,1505.3,325.2,-0.7,1.8,2470.084,13.33,0.065,256.8
2019-09-26T04:26:31,42.805,6.029,-0.015,0.008,-0.021,101.0,104.0,98.0,13.3,1505.3,326.2,-0.7,1.8,2470.067,13.33,0.017,298.1
2019-09-26T04:29:32,42.805,6.029,-0.033,0.006,-0.029,101.0,103.0,99.0,13.4,1505.3,325.5,-0.7,1.8,2470.097,13.33,0.033,280.3
2019-09-26T04:32:33,42.805,6.029,-0.016,0.02,-0.014,102.0,105.0,98.0,13.4,1505.3,327.1,-0.7,1.8,2470.089,13.33,0.025,321.3
2019-09-26T04:35:34,42.805,6.029,-0.049,-0.013,-0.011,101.0,105.0,98.0,13.4,1505.3,326.0,-0.8,1.8,2470.101,13.33,0.05,255.1
2019-09-26T04:38:35,42.805,6.029,-0.022,0.012,0.003,101.0,104.0,99.0,13.4,1505.3,325.1,-0.7,1.8,2470.057,13.33,0.025,298.6
2019-09-26T04:41:36,42.805,6.029,-0.014,0.013,0.0,102.0,104.0,98.0,13.4,1505.3,324.9,-0.7,1.8,2470.075,13.33,0.019,312.9
2019-09-26T04:44:37,42.805,6.029,-0.035,0.018,-0.016,101.0,105.0,99.0,13.4,1505.3,325.0,-0.7,1.9,2470.037,13.33,0.039,297.2
2019-09-26T04:47:38,42.805,6.029,-0.047,-0.002,-0.048,101.0,104.0,98.0,13.4,1505.3,326.7,-0.7,1.8,2470.092,13.33,0.047,267.6
2019-09-26T04:50:39,42.805,6.029,0.008,0.016,0.02,101.0,105.0,99.0,13.4,1505.3,323.5,-0.7,1.8,2470.083,13.33,0.017,26.6
2019-09-26T04:53:40,42.805,6.029,-0.001,0.008,-0.013,101.0,105.0,98.0,13.3,1505.3,326.1,-0.7,1.8,2470.059,13.33,0.008,352.9
2019-09-26T04:56:41,42.805,6.029,-0.085,0.008,-0.043,100.0,105.0,100.0,13.3,1505.3,324.6,-0.7,1.9,2470.089,13.33,0.085,275.4
2019-09-26T04:59:42,42.805,6.029,-0.054,0.027,-0.024,100.0,104.0,98.0,13.4,1505.3,326.0,-0.7,1.8,2470.07,13.33,0.06,296.6
2019-09-26T05:02:43,42.805,6.029,-0.04,0.014,-0.031,100.0,104.0,98.0,13.4,1505.3,325.5,-0.7,1.8,2470.081,13.33,0.042,289.3
2019-09-26T05:05:44,42.805,6.029,-0.026,0.0,-0.061,101.0,103.0,99.0,13.4,1505.3,327.4,-0.7,1.8,2470.095,13.33,0.026,270.0
2019-09-26T05:08:45,42.805,6.029,-0.032,0.0,-0.03,101.0,107.0,99.0,13.4,1505.3,326.0,-0.7,1.9,2470.082,13.33,0.032,270.0
2019-09-26T05:11:46,42.805,6.029,-0.004,0.023,-0.006,100.0,104.0,99.0,13.3,1505.3,328.2,-0.7,1.8,2470.059,13.33,0.023,350.1
2019-09-26T05:14:47,42.805,6.029,-0.033,-0.007,-0.027,101.0,104.0,99.0,13.4,1505.3,325.6,-0.7,1.8,2470.089,13.33,0.033,258.0
2019-09-26T05:17:48,42.805,6.029,-0.042,0.005,-0.045,101.0,105.0,99.0,13.4,1505.4,325.4,-0.7,1.8,2470.075,13.34,0.042,276.8
2019-09-26T05:20:49,42.805,6.029,-0.02,-0.003,-0.008,101.0,103.0,99.0,13.4,1505.4,324.0,-0.7,1.8,2470.114,13.34,0.02,261.5
2019-09-26T05:23:50,42.805,6.029,-0.007,-0.013,0.038,102.0,104.0,99.0,13.3,1505.3,328.2,-0.8,1.8,2470.08,13.33,0.014,208.3
2019-09-26T05:26:51,42.805,6.029,-0.025,-0.001,-0.025,102.0,103.0,99.0,13.4,1505.4,326.9,-0.7,1.8,2470.065,13.34,0.025,267.7
2019-09-26T05:29:52,42.805,6.029,-0.022,0.001,-0.008,100.0,106.0,98.0,13.3,1505.4,324.2,-0.7,1.8,2470.074,13.34,0.022,272.6
2019-09-26T05:32:53,42.805,6.029,-0.044,-0.018,-0.011,101.0,107.0,98.0,13.3,1505.4,325.1,-0.7,1.8,2470.077,13.34,0.047,247.8
2019-09-26T05:35:54,42.805,6.029,-0.022,0.015,-0.017,101.0,107.0,98.0,13.3,1505.4,326.9,-0.7,1.8,2470.099,13.34,0.026,304.3
2019-09-26T05:38:55,42.805,6.029,-0.012,-0.001,0.002,101.0,104.0,99.0,13.4,1505.4,325.9,-0.7,1.8,2470.096,13.34,0.012,265.2
2019-09-26T05:41:56,42.805,6.029,-0.043,0.0,-0.017,102.0,105.0,98.0,13.4,1505.4,325.8,-0.7,1.8,2470.041,13.34,0.043,270.0
2019-09-26T05:44:57,42.805,6.029,0.006,-0.012,-0.012,102.0,105.0,99.0,13.4,1505.4,323.0,-0.7,1.8,2470.112,13.34,0.013,153.4
2019-09-26T05:47:58,42.805,6.029,-0.023,-0.01,-0.02,102.0,106.0,98.0,13.4,1505.4,327.6,-0.7,1.8,2470.089,13.34,0.025,246.5
2019-09-26T05:50:59,42.805,6.029,-0.011,0.002,0.003,101.0,105.0,99.0,13.4,1505.3,324.5,-0.7,1.9,2470.085,13.33,0.011,280.3
2019-09-26T05:54:00,42.805,6.029,-0.016,0.037,0.005,101.0,105.0,98.0,13.3,1505.3,325.4,-0.7,1.8,2470.069,13.33,0.04,336.6
2019-09-26T05:57:01,42.805,6.029,-0.024,0.0,-0.029,102.0,104.0,97.0,13.4,1505.3,326.3,-0.7,1.9,2470.064,13.33,0.024,270.0
2019-09-26T06:00:02,42.805,6.029,-0.026,0.009,-0.031,102.0,104.0,98.0,13.4,1505.4,325.4,-0.7,1.8,2470.071,13.34,0.027,289.1
2019-09-26T06:03:03,42.805,6.029,-0.03,-0.005,-0.044,102.0,105.0,97.0,13.4,1505.4,323.8,-0.7,1.8,2470.089,13.34,0.03,260.5
2019-09-26T06:06:04,42.805,6.029,0.012,0.015,-0.005,102.0,106.0,98.0,13.4,1505.4,328.3,-0.7,1.8,2470.075,13.34,0.019,38.7
2019-09-26T06:09:05,42.805,6.029,-0.025,0.016,0.002,101.0,105.0,99.0,13.3,1505.4,325.7,-0.7,1.8,2470.074,13.34,0.029,302.6
2019-09-26T06:12:06,42.805,6.029,-0.011,0.02,-0.008,102.0,105.0,98.0,13.4,1505.4,323.9,-0.7,1.8,2470.077,13.34,0.022,331.2
2019-09-26T06:15:07,42.805,6.029,0.0,0.014,-0.004,101.0,106.0,98.0,13.3,1505.3,327.2,-0.8,1.8,2470.105,13.33,0.014,0.0
2019-09-26T06:18:08,42.805,6.029,-0.027,-0.017,-0.047,101.0,106.0,98.0,13.3,1505.3,324.6,-0.7,1.8,2470.105,13.33,0.031,237.8
2019-09-26T06:21:09,42.805,6.029,-0.023,-0.004,0.01,101.0,105.0,99.0,13.4,1505.3,324.6,-0.7,1.8,2470.071,13.33,0.023,260.1
2019-09-26T06:24:10,42.805,6.029,-0.015,0.007,-0.005,100.0,104.0,99.0,13.4,1505.3,326.4,-0.7,1.8,2470.08,13.33,0.016,295.0
2019-09-26T06:27:11,42.805,6.029,-0.046,-0.016,-0.053,101.0,105.0,98.0,13.3,1505.3,326.8,-0.7,1.8,2470.097,13.33,0.048,250.8
2019-09-26T06:30:12,42.805,6.029,-0.036,-0.009,-0.005,100.0,105.0,98.0,13.4,1505.3,323.7,-0.7,1.8,2470.067,13.33,0.037,256.0
2019-09-26T06:33:13,42.805,6.029,-0.018,-0.01,-0.022,101.0,104.0,98.0,13.4,1505.3,325.8,-0.7,1.8,2470.06,13.33,0.02,240.9
2019-09-26T06:36:14,42.805,6.029,-0.021,-0.004,0.008,101.0,106.0,97.0,13.3,1505.3,327.9,-0.7,1.8,2470.074,13.33,0.021,259.2
2019-09-26T06:39:15,42.805,6.029,-0.04,-0.001,-0.047,101.0,107.0,99.0,13.4,1505.3,327.8,-0.7,1.8,2470.103,13.33,0.04,268.6
2019-09-26T06:42:16,42.805,6.029,0.002,0.0,0.008,101.0,105.0,98.0,13.4,1505.4,327.3,-0.7,1.9,2470.055,13.34,0.002,90.0
2019-09-26T06:45:17,42.805,6.029,0.01,-0.017,0.002,102.0,105.0,98.0,13.4,1505.4,327.7,-0.7,1.9,2470.064,13.34,0.019,149.5
2019-09-26T06:48:18,42.805,6.029,0.015,0.007,0.028,102.0,104.0,98.0,13.3,1505.4,327.1,-0.7,1.8,2470.076,13.34,0.016,65.0
2019-09-26T06:51:19,42.805,6.029,-0.013,0.015,-0.009,101.0,106.0,98.0,13.4,1505.4,327.9,-0.7,1.8,2470.045,13.34,0.019,319.1
2019-09-26T06:54:20,42.805,6.029,-0.008,0.012,0.054,101.0,105.0,98.0,13.4,1505.4,327.4,-0.7,1.8,2470.079,13.34,0.014,326.3
2019-09-26T06:57:21,42.805,6.029,-0.014,-0.007,0.021,100.0,106.0,98.0,13.4,1505.4,328.0,-0.7,1.8,2470.121,13.34,0.015,243.4
2019-09-26T07:00:22,42.805,6.029,-0.014,0.0,-0.019,102.0,105.0,98.0,13.4,1505.4,324.1,-0.7,1.8,2470.075,13.34,0.014,270.0
2019-09-26T07:03:23,42.805,6.029,-0.02,-0.004,-0.017,103.0,105.0,98.0,13.3,1505.4,325.6,-0.7,1.9,2470.029,13.34,0.02,258.7
2019-09-26T07:06:24,42.805,6.029,-0.021,0.008,-0.006,100.0,105.0,97.0,13.4,1505.4,324.9,-0.7,1.8,2470.097,13.34,0.022,290.9
2019-09-26T07:09:25,42.805,6.029,-0.032,-0.004,-0.047,102.0,104.0,100.0,13.3,1505.4,324.1,-0.7,1.8,2470.07,13.34,0.032,262.9
2019-09-26T07:12:26,42.805,6.029,-0.014,0.0,-0.043,101.0,104.0,99.0,13.4,1505.4,325.2,-0.7,1.8,2470.079,13.34,0.014,270.0
2019-09-26T07:15:27,42.805,6.029,-0.028,0.005,-0.032,101.0,103.0,98.0,13.3,1505.4,327.4,-0.7,1.8,2470.064,13.34,0.028,280.1
2019-09-26T07:18:28,42.805,6.029,-0.008,0.002,-0.002,102.0,103.0,99.0,13.4,1505.4,323.8,-0.7,1.8,2470.044,13.34,0.008,284.0
2019-09-26T07:21:29,42.805,6.029,-0.029,0.0,-0.018,101.0,105.0,99.0,13.4,1505.4,325.1,-0.7,1.8,2470.091,13.34,0.028,270.0
2019-09-26T07:24:30,42.805,6.029,-0.032,0.003,-0.01,102.0,104.0,99.0,13.3,1505.4,327.7,-0.7,1.8,2470.061,13.34,0.032,275.4
2019-09-26T07:27:31,42.805,6.029,-0.014,0.018,-0.023,100.0,106.0,97.0,13.4,1505.4,327.0,-0.7,1.8,2470.081,13.34,0.022,322.1
2019-09-26T07:30:32,42.805,6.029,-0.023,-0.001,-0.03,102.0,103.0,98.0,13.4,1505.4,325.2,-0.7,1.8,2470.066,13.34,0.023,267.5
2019-09-26T07:33:33,42.805,6.029,-0.008,0.003,0.0,101.0,106.0,98.0,13.4,1505.4,325.6,-0.7,1.8,2470.067,13.34,0.008,290.6
2019-09-26T07:36:34,42.805,6.029,-0.022,0.008,-0.032,103.0,103.0,98.0,13.3,1505.4,327.0,-0.7,1.8,2470.064,13.34,0.023,290.0
2019-09-26T07:39:35,42.805,6.029,-0.011,0.021,-0.013,100.0,106.0,99.0,13.3,1505.3,326.7,-0.7,1.8,2470.057,13.33,0.023,332.4
2019-09-26T07:42:36,42.805,6.029,0.027,-0.003,0.011,101.0,104.0,98.0,13.4,1505.3,328.2,-0.7,1.8,2470.072,13.33,0.027,96.3
2019-09-26T07:45:37,42.805,6.029,-0.037,0.004,-0.036,101.0,105.0,98.0,13.3,1505.3,328.1,-0.7,1.8,2470.122,13.33,0.037,276.2
2019-09-26T07:48:38,42.805,6.029,-0.045,0.016,-0.029,101.0,105.0,98.0,13.3,1505.3,325.5,-0.7,1.8,2470.081,13.33,0.047,289.6
2019-09-26T07:51:39,42.805,6.029,-0.01,-0.011,-0.03,101.0,106.0,99.0,13.4,1505.3,324.5,-0.7,1.9,2470.051,13.33,0.014,222.3
2019-09-26T07:54:40,42.805,6.029,-0.033,0.01,-0.012,101.0,105.0,99.0,13.3,1505.3,325.0,-0.7,1.9,2470.033,13.33,0.034,286.9
2019-09-26T07:57:41,42.805,6.029,-0.01,-0.005,-0.02,101.0,105.0,100.0,13.4,1505.4,326.9,-0.7,1.8,2470.058,13.34,0.011,243.4
2019-09-26T08:00:42,42.805,6.029,-0.017,0.004,-0.013,103.0,105.0,98.0,13.4,1505.4,323.6,-0.8,1.8,2470.084,13.34,0.017,283.2
2019-09-26T08:03:43,42.805,6.029,-0.017,0.014,-0.015,102.0,105.0,98.0,13.4,1505.4,328.5,-0.7,1.8,2470.073,13.34,0.022,309.5
2019-09-26T08:06:44,42.805,6.029,-0.031,0.008,-0.053,101.0,105.0,98.0,13.3,1505.4,323.6,-0.7,1.8,2470.083,13.34,0.032,284.5
2019-09-26T08:09:45,42.805,6.029,-0.014,0.014,-0.016,102.0,105.0,99.0,13.4,1505.4,324.5,-0.7,1.8,2470.0,13.34,0.019,315.0
2019-09-26T08:12:46,42.805,6.029,-0.053,0.001,-0.004,101.0,105.0,97.0,13.4,1505.3,322.8,-0.7,1.8,2470.015,13.33,0.053,271.1
2019-09-26T08:15:47,42.805,6.029,0.001,-0.006,-0.033,101.0,105.0,99.0,13.3,1505.3,324.9,-0.7,1.9,2469.977,13.33,0.006,170.5
2019-09-26T08:18:48,42.805,6.029,0.003,0.01,-0.011,103.0,107.0,99.0,13.3,1505.3,324.7,-0.7,1.8,2470.052,13.33,0.01,16.7
2019-09-26T08:21:49,42.805,6.029,-0.02,0.013,-0.018,101.0,104.0,99.0,13.3,1505.4,327.9,-0.7,1.9,2470.017,13.34,0.023,303.0
2019-09-26T08:24:50,42.805,6.029,-0.026,0.0,-0.04,102.0,105.0,99.0,13.3,1505.4,323.2,-0.7,1.8,2469.992,13.34,0.026,270.0
2019-09-26T08:27:51,42.805,6.029,-0.005,0.028,0.015,101.0,105.0,99.0,13.4,1505.4,325.4,-0.7,1.8,2470.019,13.34,0.028,349.9
